Overview Statistics Trail Chart Weather Telemetry Raw packets
 

This is the latest recevied weather packets stored in our database for station/object SV1JSO-13. If no packets are shown the sender has not sent any weather packets the latest 10 day(s).

<< 61 62 63 64 65 66 67 >>
Time Temp. Humidity Pressure Rain* Wind** Luminosity Snow
1788241800 29.44° C 42% 1008.5 hPa 0 mm - 191 W/m² -
1788241500 29.44° C 41% 1008.4 hPa 0 mm - 175 W/m² -
1788241200 28.89° C 42% 1008.4 hPa 0 mm - 163 W/m² -
1788240900 28.33° C 42% 1008.4 hPa 0 mm - 153 W/m² -
1788240600 28.33° C 43% 1008.4 hPa 0 mm - 143 W/m² -
1788240300 28.33° C 42% 1008.3 hPa 0 mm - 128 W/m² -
1788240000 28.33° C 41% 1008.3 hPa 0 mm - 117 W/m² -
1788239700 28.33° C 40% 1008.3 hPa 0 mm - 105 W/m² -
1788239400 27.78° C 40% 1008.2 hPa 0 mm - 95 W/m² -
1788239100 27.78° C 40% 1008.3 hPa 0 mm - 84 W/m² -
1788238800 27.78° C 41% 1008.2 hPa 0 mm - 75 W/m² -
1788238500 27.22° C 41% 1008.2 hPa 0 mm - 67 W/m² -
1788238200 26.67° C 42% 1008.2 hPa 0 mm - 59 W/m² -
1788237900 26.11° C 42% 1008.1 hPa 0 mm - 51 W/m² -
1788237600 26.11° C 42% 1008 hPa 0 mm - 39 W/m² -
1788237300 26.11° C 42% 1008 hPa 0 mm - 35 W/m² -
1788237000 26.11° C 43% 1008 hPa 0 mm - 31 W/m² -
1788236705 26.11° C 43% 1008 hPa 0 mm - 27 W/m² -
1788236400 26.11° C 43% 1007.8 hPa 0 mm - 23 W/m² -
1788236100 26.11° C 43% 1007.9 hPa 0 mm - 19 W/m² -
1788235800 26.11° C 43% 1007.9 hPa 0 mm - 15 W/m² -
1788235500 26.11° C 43% 1007.8 hPa 0 mm - 10 W/m² -
1788235200 26.11° C 43% 1007.7 hPa 0 mm - 7 W/m² -
1788234900 26.11° C 42% 1007.7 hPa 0 mm - 4 W/m² -
1788234600 26.11° C 42% 1007.7 hPa 0 mm - 2 W/m² -

* Rain latest hour (hover to see other rain measurements)
** Current wind speed in m/s (hover to see current wind gust speed)